Location: Buckland
(65.9785°N, 161.1281°W)
Time: 21:01:25
(UTC+00:00)

SPROUT - Pass Details

Date: 17 January 2021
Orbit: 597 x 610 km, 97.9° (Epoch: 07 March)

Event Time Altitude Azimuth Distance (km) Brightness Sun altitude
Exits shadow 05:15:04 - 10° (N) 2,026 ? -20.9°
Reaches altitude 10° 05:15:59 10° 357° (N) 1,976 ? -21.0°
Maximum altitude 05:16:06 10° 356° (N) 1,975 ? -21.0°
Drops below altitude 10° 05:16:13 10° 354° (N) 1,976 ? -21.0°
Sets 05:20:56 0° 307° (NW) 2,885 ? -21.5°
